Kelso, MO

9:49 AM CST on February 07, 2016 (GMT -0600)
Cape Girardeau Regional

Weather History for KCGI - March, 2014

Change the Weather History Date:

Wednesday, March 12, 2014

  Actual Average Record
Temperature  
Mean Temperature 47 °F 46 °F  
Max Temperature 61 °F 57 °F 82 °F (1967)
Min Temperature 33 °F 35 °F 10 °F (1998)
Degree Days  
Heating Degree Days 18 19  
Month to date heating degree days 340 252  
Since 1 July heating degree days 4265 3749  
Cooling Degree Days 0 0  
Month to date cooling degree days 0 0  
Year to date cooling degree days 0 0  
Moisture  
Dew Point 34 °F    
Average Humidity 64    
Maximum Humidity 90    
Minimum Humidity 37    
Precipitation  
Precipitation T in 0.13 in 1.49 in (1961)
Month to date precipitation 0.65 1.53  
Year to date precipitation 3.79 8.41  
Sea Level Pressure  
Sea Level Pressure 29.84 in    
Wind  
Wind Speed 17 mph (NW)    
Max Wind Speed 38 mph    
Max Gust Speed 48 mph    
Visibility 10 miles    
Events Rain    
T = Trace of Precipitation, MM = Missing Value Source: NWS Daily Summary

Daily Weather History Graph

Daily Weather History Graph

Search for Another Location

Airport or City:

Trip Planner

Search our weather history database for the weather conditions in past years. The results will help you decide how hot, cold, wet, or windy it might be!

Date:

Astronomy

Mar. 12, 2014 Rise Set
Actual Time 7:13 AM CDT 7:02 PM CDT
Civil Twilight 6:47 AM CDT 7:28 PM CDT
Nautical Twilight 6:17 AM CDT 7:59 PM CDT
Astronomical Twilight 5:47 AM CDT 8:29 PM CDT
Moon 3:37 PM CDT (3/12) 4:41 AM CDT (3/12)
Length of Visible Light 12h 41m
Length of Day
11h 49m
Waxing Gibbous, 85% of the Moon is Illuminated
Mar 12
Waxing Gibbous
Mar 16
Full
Mar 23
Last Quarter
Mar 30
New
Apr 7
First Quarter

Hourly Weather History & Observations

Time (CDT) Temp. Windchill Dew Point Humidity Pressure Visibility Wind Dir Wind Speed Gust Speed Precip Events Conditions
12:53 AM 61.0 °F - 57.0 °F 87% 29.47 in 10.0 mi SSW 20.7 mph - N/A   Clear
1:53 AM 60.1 °F - 57.0 °F 90% 29.45 in 10.0 mi SSW 16.1 mph 26.5 mph N/A   Partly Cloudy
2:53 AM 61.0 °F - 57.0 °F 87% 29.45 in 10.0 mi SW 17.3 mph - N/A   Overcast
3:03 AM 61.0 °F - 57.0 °F 87% 29.46 in 10.0 mi SW 15.0 mph - N/A   Overcast
3:29 AM 51.1 °F - 48.0 °F 89% 29.51 in 10.0 mi NNW 26.5 mph 39.1 mph 0.00 in Rain Light Rain
3:51 AM 46.4 °F 38.1 °F 41.0 °F 81% 29.55 in 10.0 mi NNW 24.2 mph 40.3 mph 0.00 in   Overcast
3:53 AM 46.0 °F 37.6 °F 41.0 °F 83% 29.55 in 10.0 mi NNW 24.2 mph 40.3 mph 0.00 in   Overcast
4:11 AM 45.0 °F 35.6 °F 39.0 °F 80% 29.58 in 10.0 mi NNW 27.6 mph 38.0 mph N/A   Overcast
4:53 AM 44.1 °F 35.0 °F 37.9 °F 79% 29.62 in 10.0 mi NNW 24.2 mph 32.2 mph N/A   Overcast
5:53 AM 42.1 °F 32.8 °F 36.0 °F 79% 29.68 in 10.0 mi NNW 21.9 mph 35.7 mph N/A   Overcast
6:53 AM 39.9 °F 29.5 °F 34.0 °F 79% 29.74 in 10.0 mi NNW 24.2 mph 40.3 mph N/A   Overcast
7:53 AM 39.9 °F 29.2 °F 33.1 °F 77% 29.80 in 10.0 mi NNW 25.3 mph 39.1 mph N/A   Overcast
8:53 AM 39.9 °F 29.7 °F 33.1 °F 77% 29.86 in 10.0 mi NNW 23.0 mph 33.4 mph N/A   Overcast
9:53 AM 39.9 °F 30.5 °F 32.0 °F 73% 29.91 in 10.0 mi NW 19.6 mph 27.6 mph N/A   Overcast
10:53 AM 39.9 °F 30.5 °F 30.9 °F 70% 29.95 in 10.0 mi NNW 19.6 mph 31.1 mph N/A   Overcast
11:53 AM 39.9 °F 31.4 °F 30.0 °F 68% 29.98 in 10.0 mi NW 16.1 mph - N/A   Overcast
12:46 PM 41.0 °F 31.4 °F 30.0 °F 65% 30.00 in 10.0 mi NNW 21.9 mph 26.5 mph N/A   Overcast
12:53 PM 42.1 °F 33.1 °F 30.0 °F 62% 30.00 in 10.0 mi NNW 20.7 mph 26.5 mph N/A   Overcast
1:53 PM 45.0 °F 36.9 °F 28.0 °F 52% 30.01 in 10.0 mi NNW 20.7 mph 33.4 mph N/A   Overcast
2:53 PM 46.0 °F 38.3 °F 27.0 °F 47% 30.03 in 10.0 mi NW 20.7 mph 35.7 mph N/A   Overcast
3:53 PM 46.9 °F - 24.1 °F 41% 30.03 in 10.0 mi North 20.7 mph - N/A   Partly Cloudy
4:53 PM 46.9 °F - 21.9 °F 37% 30.04 in 10.0 mi NNW 13.8 mph - N/A   Clear
5:53 PM 46.9 °F - 21.0 °F 36% 30.05 in 10.0 mi NNW 16.1 mph 27.6 mph N/A   Clear
6:53 PM 44.1 °F 37.7 °F 21.9 °F 42% 30.08 in 10.0 mi NNW 12.7 mph - N/A   Scattered Clouds
7:53 PM 43.0 °F 35.4 °F 21.9 °F 43% 30.11 in 10.0 mi NNW 16.1 mph 24.2 mph N/A   Scattered Clouds
8:53 PM 42.1 °F 36.6 °F 24.1 °F 49% 30.13 in 10.0 mi NNW 9.2 mph - N/A   Overcast
9:53 PM 41.0 °F 34.7 °F 25.0 °F 53% 30.14 in 10.0 mi North 10.4 mph - N/A   Overcast
10:53 PM 39.9 °F 33.4 °F 25.0 °F 55% 30.15 in 10.0 mi NNW 10.4 mph - N/A   Clear
11:53 PM 36.0 °F 30.3 °F 25.0 °F 64% 30.15 in 10.0 mi NNW 6.9 mph - N/A   Clear